Weather History for KEFK - September, 2013

Change the Weather History Date:

Friday, September 6, 2013

  Actual Average Record
Temperature  
Mean Temperature 49 °F -  
Max Temperature 63 °F 72 °F 90 °F (1945)
Min Temperature 35 °F 50 °F 35 °F (2013)
Degree Days  
Heating Degree Days 16    
Moisture  
Dew Point 38 °F    
Average Humidity 66    
Maximum Humidity 93    
Minimum Humidity 36    
Precipitation  
Precipitation 0.00 in - - ()
Sea Level Pressure  
Sea Level Pressure 30.16 in    
Wind  
Wind Speed 3 mph (SW)    
Max Wind Speed 13 mph    
Max Gust Speed 17 mph    
Visibility 10 miles    
Events      
Averages and records for this station are not official NWS values.
T = Trace of Precipitation, MM = Missing Value Source: NWS Daily Summary

Daily Weather History Graph

Daily Weather History Graph

Search for Another Location

Airport or City:

Trip Planner

Search our weather history database for the weather conditions in past years. The results will help you decide how hot, cold, wet, or windy it might be!

Date:

Astronomy

Sep. 06, 2013 Rise Set
Actual Time 6:17 AM EDT 7:16 PM EDT
Civil Twilight 5:47 AM EDT 7:46 PM EDT
Nautical Twilight 5:11 AM EDT 8:21 PM EDT
Astronomical Twilight 4:34 AM EDT 8:59 PM EDT
Moon 7:32 AM EDT (9/6) 7:32 PM EDT (9/6)
Length of Visible Light 13h 58m
Length of Day
12h 59m
New Moon, 1% of the Moon is Illuminated
Sep 6
New Moon
Sep 12
First Quarter
Sep 19
Full
Sep 26
Last Quarter
Oct 4
New

Hourly Weather History & Observations

Time (EDT) Temp. Windchill Dew Point Humidity Pressure Visibility Wind Dir Wind Speed Gust Speed Precip Events Conditions
12:15 AM 39.9 °F 37.8 °F 36.3 °F 87% 30.16 in 10.0 mi SE 3.5 mph - N/A   Clear
12:35 AM 40.5 °F - 37.2 °F 88% 30.17 in 10.0 mi Calm Calm - N/A   Clear
12:55 AM 40.5 °F 38.4 °F 36.5 °F 86% 30.17 in 10.0 mi SW 3.5 mph - N/A   Clear
1:15 AM 39.4 °F - 36.0 °F 88% 30.17 in 10.0 mi Calm Calm - N/A   Clear
1:35 AM 39.9 °F - 36.3 °F 87% 30.17 in 10.0 mi Calm Calm - N/A   Clear
1:55 AM 39.6 °F - 36.7 °F 89% 30.17 in 10.0 mi Calm Calm - N/A   Clear
2:15 AM 39.2 °F - 35.6 °F 87% 30.18 in 10.0 mi Calm Calm - N/A   Clear
2:35 AM 38.5 °F - 35.2 °F 88% 30.18 in 10.0 mi Calm Calm - N/A   Clear
2:55 AM 38.3 °F 34.8 °F 35.1 °F 88% 30.18 in 10.0 mi SW 4.6 mph - N/A   Clear
3:15 AM 37.4 °F 32.8 °F 34.9 °F 91% 30.19 in 10.0 mi SSW 5.8 mph - N/A   Clear
3:35 AM 36.7 °F 32.9 °F 34.0 °F 90% 30.18 in 10.0 mi SSW 4.6 mph - N/A   Clear
3:55 AM 37.2 °F - 34.7 °F 91% 30.19 in 10.0 mi Calm Calm - N/A   Clear
4:15 AM 38.1 °F - 35.6 °F 91% 30.19 in 10.0 mi Calm Calm - N/A   Clear
4:35 AM 36.5 °F - 34.0 °F 91% 30.20 in 10.0 mi Calm Calm - N/A   Clear
4:55 AM 36.5 °F - 34.2 °F 91% 30.20 in 10.0 mi Calm Calm - N/A   Clear
5:15 AM 36.5 °F - 34.2 °F 91% 30.20 in 10.0 mi Calm Calm - N/A   Clear
5:35 AM 36.7 °F - 34.3 °F 91% 30.21 in 10.0 mi Calm Calm - N/A   Clear
5:55 AM 36.3 °F - 34.0 °F 91% 30.21 in 10.0 mi Calm Calm - N/A   Clear
6:15 AM 36.3 °F - 34.0 °F 91% 30.21 in 10.0 mi Calm Calm - N/A   Clear
6:35 AM 35.8 °F - 33.8 °F 92% 30.22 in 10.0 mi Calm Calm - N/A   Clear
6:55 AM 36.7 °F - 34.7 °F 93% 30.22 in 10.0 mi Calm Calm - N/A   Clear
7:15 AM 37.4 °F - 35.2 °F 92% 30.23 in 10.0 mi Calm Calm - N/A   Clear
7:35 AM 38.7 °F - 36.3 °F 91% 30.23 in 10.0 mi Calm Calm - N/A   Clear
7:55 AM 40.8 °F - 38.5 °F 91% 30.24 in 10.0 mi Calm Calm - N/A   Clear
8:15 AM 43.0 °F - 39.4 °F 87% 30.24 in 10.0 mi Calm Calm - N/A   Clear
8:35 AM 45.7 °F - 41.0 °F 84% 30.24 in 10.0 mi Calm Calm - N/A   Clear
8:55 AM 48.9 °F - 41.5 °F 76% 30.24 in 10.0 mi South 3.5 mph - N/A   Clear
9:15 AM 50.2 °F - 41.0 °F 71% 30.24 in 10.0 mi South 3.5 mph - N/A   Clear
9:35 AM 52.7 °F - 41.0 °F 64% 30.23 in 10.0 mi SSW 3.5 mph - N/A   Clear
9:55 AM 54.1 °F - 41.0 °F 61% 30.23 in 10.0 mi SE 3.5 mph - N/A   Clear
10:15 AM 55.6 °F - 39.4 °F 55% 30.22 in 10.0 mi Calm Calm - N/A   Clear
10:35 AM 56.3 °F - 38.3 °F 51% 30.22 in 10.0 mi SSW 4.6 mph - N/A   Clear
10:55 AM 57.2 °F - 37.2 °F 47% 30.22 in 10.0 mi NW 6.9 mph - N/A   Clear
11:15 AM 57.7 °F - 36.1 °F 44% 30.21 in 10.0 mi WSW 3.5 mph 10.4 mph N/A   Clear
11:35 AM 58.1 °F - 36.7 °F 45% 30.21 in 10.0 mi WSW 4.6 mph - N/A   Clear
11:55 AM 59.0 °F - 36.3 °F 43% 30.21 in 10.0 mi West 4.6 mph - N/A   Clear
12:15 PM 59.0 °F - 36.9 °F 44% 30.20 in 10.0 mi WSW 10.4 mph - N/A   Clear
12:35 PM 59.7 °F - 36.3 °F 42% 30.20 in 10.0 mi WSW 5.8 mph - N/A   Clear
12:55 PM 60.4 °F - 37.8 °F 43% 30.19 in 10.0 mi WSW 9.2 mph - N/A   Clear
1:15 PM 61.0 °F - 36.7 °F 40% 30.18 in 10.0 mi West 12.7 mph - N/A   Clear
1:35 PM 61.2 °F - 36.1 °F 39% 30.17 in 10.0 mi WSW 9.2 mph 16.1 mph N/A   Clear
1:55 PM 61.2 °F - 35.1 °F 38% 30.17 in 10.0 mi West 8.1 mph 17.3 mph N/A   Clear
2:15 PM 61.7 °F - 35.6 °F 38% 30.16 in 10.0 mi West 9.2 mph - N/A   Clear
2:35 PM 61.9 °F - 34.7 °F 36% 30.15 in 10.0 mi West 8.1 mph - N/A   Clear
2:55 PM 62.4 °F - 35.6 °F 37% 30.14 in 10.0 mi West 9.2 mph - N/A   Clear
3:15 PM 62.8 °F - 37.9 °F 40% 30.14 in 10.0 mi WSW 6.9 mph - N/A   Clear
3:35 PM 62.8 °F - 37.8 °F 40% 30.13 in 10.0 mi SSW 8.1 mph - N/A   Clear
3:55 PM 63.0 °F - 38.3 °F 40% 30.13 in 10.0 mi WSW 8.1 mph - N/A   Clear
4:15 PM 63.5 °F - 38.5 °F 40% 30.12 in 10.0 mi SSW 8.1 mph - N/A   Clear
4:35 PM 63.0 °F - 38.1 °F 40% 30.12 in 10.0 mi SW 8.1 mph - N/A   Clear
4:55 PM 62.8 °F - 37.4 °F 39% 30.11 in 10.0 mi SSW 6.9 mph - N/A   Clear
5:15 PM 62.6 °F - 39.0 °F 42% 30.10 in 10.0 mi SW 6.9 mph - N/A   Clear
5:35 PM 62.2 °F - 38.1 °F 41% 30.09 in 10.0 mi SSW 6.9 mph - N/A   Clear
5:55 PM 61.7 °F - 38.5 °F 42% 30.09 in 10.0 mi SSW 8.1 mph - N/A   Clear
6:15 PM 60.3 °F - 40.3 °F 48% 30.09 in 10.0 mi South 4.6 mph - N/A   Clear
6:35 PM 59.9 °F - 40.5 °F 49% 30.09 in 10.0 mi South 3.5 mph - N/A   Clear
6:55 PM 58.6 °F - 39.4 °F 49% 30.09 in 10.0 mi South 4.6 mph - N/A   Clear
7:15 PM 57.7 °F - 39.4 °F 50% 30.08 in 10.0 mi South 3.5 mph - N/A   Scattered Clouds
7:35 PM 56.8 °F - 39.6 °F 52% 30.08 in 10.0 mi South 4.6 mph - N/A   Scattered Clouds
7:55 PM 56.5 °F - 39.4 °F 53% 30.08 in 10.0 mi South 3.5 mph - N/A   Clear
8:15 PM 55.6 °F - 40.1 °F 56% 30.08 in 10.0 mi South 4.6 mph - N/A   Clear
8:35 PM 55.4 °F - 40.1 °F 56% 30.08 in 10.0 mi Calm Calm - N/A   Clear
8:55 PM 54.0 °F - 41.0 °F 62% 30.08 in 10.0 mi South 3.5 mph - N/A   Clear
9:15 PM 52.7 °F - 41.7 °F 66% 30.08 in 10.0 mi South 3.5 mph - N/A   Clear
9:35 PM 53.1 °F - 41.4 °F 64% 30.08 in 10.0 mi SSW 3.5 mph - N/A   Clear
9:55 PM 49.3 °F - 42.8 °F 78% 30.08 in 10.0 mi Calm Calm - N/A   Clear
10:15 PM 49.6 °F - 42.8 °F 77% 30.07 in 10.0 mi SSW 5.8 mph - N/A   Clear
10:35 PM 50.0 °F - 42.4 °F 75% 30.07 in 10.0 mi SSW 5.8 mph - N/A   Clear
10:55 PM 50.5 °F - 42.6 °F 74% 30.06 in 10.0 mi SSW 4.6 mph - N/A   Scattered Clouds
11:15 PM 50.2 °F - 42.4 °F 75% 30.05 in 10.0 mi South 5.8 mph - N/A   Mostly Cloudy
11:35 PM 49.1 °F - 42.8 °F 79% 30.05 in 10.0 mi SSW 4.6 mph - N/A   Scattered Clouds
11:55 PM 50.0 °F - 42.4 °F 75% 30.05 in 10.0 mi South 5.8 mph - N/A   Scattered Clouds